#timestamp,LO_Frequency,Hit 
1503208815.7,286047003.4,N
1503208835.5,286047006.6,N
1503208855.3,286047008.9,N
1503208875.2,286047010.7,N
1503208895.0,286047006.8,N
1503208895.9,286047006.8,N
1503208915.7,286047006.9,N
1503208935.6,286047003.3,N
1503208955.4,286047006.4,N
1503208975.2,286047010.1,N
1503208995.1,286047010.6,P
1503208996.0,286047010.6,P
1503209015.8,286046999.9,N
1503209035.6,286047004.2,N
1503209055.5,286047002.7,N
1503209075.3,286047001.2,N
1503209095.1,286046999.4,N
1503209115.9,286046997.1,N
1503209135.7,286046997.1,N
1503209155.5,286047000.6,N
1503209175.4,286046999.9,N
1503209195.2,286047001.5,N
1503209215.0,286047005.2,N
1503209215.9,286047005.2,N
1503209235.8,286047005.8,N
1503209255.6,286047005.6,N
1503209275.4,286047007.3,N
1503209295.2,286047006.3,N
1503209315.1,286047004.6,N
1503209316.0,286047004.6,N
1503209335.8,286047007.1,N
1503209355.6,286047005.6,N
1503209375.5,286047003.2,N
1503209395.3,286047006.4,N
1503209415.1,286047008.9,N
1503209435.9,286047008.8,N
1503209455.7,286047006.4,N
1503209475.5,286047010.1,N
1503209495.4,286047010.3,N
1503209515.2,286047007.4,N
1503209535.0,286047008.8,N
1503209535.9,286047008.8,N
1503209555.8,286047009.3,N
1503209575.6,286047011.2,P
1503209595.4,286047005.9,N
1503209615.3,286047008.7,P
1503209635.1,286047007.9,P
1503209655.8,286046997.2,P
1503209675.7,286047002.6,N
1503209695.5,286047001.5,N
1503209715.3,286047004.2,N
1503209735.2,286047004.1,N
1503209755.9,286047003.1,N
1503209775.7,286047003.0,N
1503209795.6,286047003.0,N
1503209815.4,286047004.2,N
1503209835.2,286047000.1,N
1503209855.0,286047001.6,N
1503209856.0,286047001.6,N
1503209875.8,286047002.1,N
1503209895.6,286047003.9,N
1503209915.4,286047003.5,N
1503209935.3,286047003.2,N
1503209955.1,286047006.8,N
1503209975.9,286047008.2,P
1503209995.7,286047005.9,N
1503210015.5,286047005.6,N
1503210035.3,286047004.9,N
1503210055.2,286047005.9,P
1503210075.0,286047002.8,P
1503210075.9,286047002.8,N
1503210095.8,286047006.0,P
1503210115.6,286047000.3,N
1503210135.4,286046999.0,N
1503210155.3,286046999.0,N
1503210175.1,286046998.0,N
1503210176.0,286046998.0,N
1503210195.8,286046995.4,N
1503210215.7,286046995.4,N
1503210235.5,286046996.9,N
1503210255.3,286047000.8,N
1503210275.2,286047000.6,N
1503210295.9,286047000.0,N
1503210315.7,286047000.2,N
1503210335.5,286047002.2,N
1503210355.4,286047001.7,N
1503210375.2,286047000.0,N
1503210395.0,286047000.0,N
1503210395.9,286047000.0,N
1503210415.8,286047000.3,N
1503210435.6,286047002.1,N
1503210455.4,286047001.3,N
1503210475.3,286047003.5,N
1503210495.1,286047005.5,N
1503210515.8,286047003.7,N
1503210535.7,286047005.5,N
1503210555.5,286047002.2,N
1503210575.3,286046999.8,N
1503210595.2,286047001.1,N
1503210615.9,286047001.5,N
1503210635.7,286047005.0,N
1503210655.6,286047003.5,N
1503210675.4,286047001.8,N
1503210695.2,286047002.6,N
1503210715.0,286047002.1,N
1503210716.0,286047002.1,N
1503210735.2,286047001.7,N
1503210755.9,286047004.3,N
1503210775.7,286047002.0,N
1503210795.6,286047002.0,N
1503210815.4,286047004.7,N
1503210835.2,286047005.2,P
1503210855.1,286047004.7,P
1503210856.0,286047004.7,P
1503210875.8,286047004.3,P
1503210895.6,286047000.5,P
1503210915.5,286047003.9,N
1503210935.3,286047003.6,N
1503210955.1,286047005.0,P
1503210975.9,286047001.3,N
1503210995.7,286047001.8,N
1503211015.5,286047003.6,N
1503211035.4,286047001.0,N
1503211055.2,286046999.0,N
1503211075.0,286046996.9,N
1503211075.9,286046996.9,N
1503211095.8,286046998.0,N
1503211115.6,286046995.1,N
1503211135.4,286046993.8,N
1503211155.3,286046997.5,N
1503211175.1,286046998.0,N
1503211176.0,286046998.0,N
1503211195.8,286046993.8,N
1503211215.7,286046991.7,N
1503211235.5,286046992.9,N
1503211255.3,286046992.1,N
1503211275.1,286046993.0,N
1503211295.9,286046993.1,N
1503211315.7,286046992.4,N
1503211335.5,286046992.3,N
1503211355.4,286046998.0,N
1503211375.2,286046993.7,N
1503211395.0,286046993.7,N
1503211395.9,286046993.7,N
1503211415.8,286046996.2,N
1503211435.6,286046995.2,N
1503211455.4,286046993.7,N
1503211475.3,286046994.3,N
1503211495.1,286046993.9,N
1503211496.0,286046993.9,N
1503211515.8,286046995.2,N
1503211535.7,286046994.9,N
1503211555.5,286046997.3,N
1503211575.3,286046996.2,N
1503211595.2,286046996.7,N
1503211615.9,286046999.2,N
1503211635.7,286046997.8,N
1503211655.6,286046997.4,N
1503211675.4,286046999.2,N
1503211695.2,286046999.4,N
1503211715.0,286046998.3,N
1503211716.0,286046998.3,N
1503211735.8,286046996.9,N
1503211755.6,286046999.6,N
1503211775.4,286046996.9,N
1503211795.3,286046999.1,N
1503211815.1,286046996.8,N
1503211835.8,286046995.8,N
1503211855.7,286046995.8,N
1503211875.5,286046996.2,N
1503211895.3,286046999.2,N
1503211915.2,286046997.0,N
1503211935.9,286046995.9,N
1503211955.7,286046995.6,N
1503211975.6,286046994.7,P
1503211995.4,286046995.8,P
1503212015.2,286046991.9,P
1503212035.1,286046991.8,P
1503212036.0,286046991.8,P
1503212055.8,286046999.4,N
1503212075.6,286047001.4,N
1503212095.5,286047005.2,N
1503212115.3,286047001.3,N
1503212135.1,286047000.4,N
1503212155.9,286047001.5,N
1503212175.7,286047000.5,N
1503212195.5,286047000.9,N
1503212215.4,286047000.3,N
1503212235.2,286046999.9,N
1503212255.0,286046999.0,N
1503212255.9,286046999.0,N
1503212275.8,286046997.1,N
1503212295.6,286047000.3,N
1503212315.4,286046998.1,N
1503212335.2,286047001.0,N
1503212355.1,286047000.6,N
1503212356.0,286047000.6,N
1503212375.8,286046999.1,N
1503212395.6,286047001.2,N
